Torna al catalogo

SL-16 DEB

AttivoLEO
NORAD 22612·DEBRIS·🇷🇺 Russia

Lanciato Mar 26, 1993 da Baikonur Cosmodrome

Loading…

Prossimi Passaggi (prossime 24 ore)

TLE

AggiornatoSource: Space-Track

Epoca: Sep 13, 2026, 22:55 UTC

1 22612U 93016W   26256.95512279  .00004256  00000-0  12367-2 0  9991
2 22612  70.9715  84.3502 0058564 110.3474  50.0723 14.43847726719914

Traccia SL-16 DEB in tempo reale con AllMySat

Download on the App Store